This is the latest recevied weather packets stored in our database for station/object IU8HRV-10. If no packets are shown the sender has not sent any weather packets the latest 10 day(s).
| Time | Temp. | Humidity | Pressure | Rain* | Wind** | Luminosity | Snow |
|---|---|---|---|---|---|---|---|
| 1777653090 | 30.56° C | 26% | 1019 hPa | - | - | - | - |
| 1777652189 | 31.67° C | 25% | 1019 hPa | - | - | - | - |
| 1777651288 | 31.67° C | 25% | 1019 hPa | - | - | - | - |
| 1777650387 | 32.78° C | 24% | 1019 hPa | - | - | - | - |
| 1777649486 | 31.11° C | 24% | 1019 hPa | - | - | - | - |
| 1777647683 | 31.11° C | 24% | 1019 hPa | - | - | - | - |
| 1777646782 | 30.56° C | 24% | 1018 hPa | - | - | - | - |
| 1777645880 | 30.56° C | 24% | 1019 hPa | - | - | - | - |
| 1777644979 | 30.56° C | 24% | 1019 hPa | - | - | - | - |
| 1777644078 | 28.89° C | 24% | 1019 hPa | - | - | - | - |
| 1777643177 | 26.67° C | 25% | 1019 hPa | - | - | - | - |
| 1777642276 | 26.11° C | 26% | 1019 hPa | - | - | - | - |
| 1777641375 | 26.11° C | 27% | 1019 hPa | - | - | - | - |
| 1777640474 | 26.11° C | 25% | 1019 hPa | - | - | - | - |
| 1777639573 | 27.22° C | 27% | 1019 hPa | - | - | - | - |
| 1777638672 | 26.11° C | 28% | 1019 hPa | - | - | - | - |
| 1777637771 | 25° C | 29% | 1019 hPa | - | - | - | - |
| 1777636870 | 24.44° C | 28% | 1019 hPa | - | - | - | - |
| 1777635969 | 23.33° C | 31% | 1019 hPa | - | - | - | - |
| 1777635068 | 23.33° C | 31% | 1019 hPa | - | - | - | - |
| 1777634167 | 22.78° C | 32% | 1019 hPa | - | - | - | - |
| 1777633265 | 21.67° C | 32% | 1020 hPa | - | - | - | - |
| 1777632363 | 21.67° C | 32% | 1020 hPa | - | - | - | - |
| 1777631462 | 21.67° C | 32% | 1019 hPa | - | - | - | - |
| 1777630561 | 21.11° C | 32% | 1020 hPa | - | - | - | - |
* Rain since midnight (hover to see other rain measurements)
** Current wind speed in m/s (hover to see current wind gust speed)